Weather History for KCTB - January, 2014

Change the Weather History Date:

Thursday, January 9, 2014

  Actual Average Record
Temperature  
Mean Temperature 36 °F 22 °F  
Max Temperature 41 °F 33 °F 55 °F (1928)
Min Temperature 30 °F 11 °F -30 °F (1909)
Degree Days  
Heating Degree Days 29 43  
Month to date heating degree days 379 390  
Since 1 July heating degree days 3908 3980  
Cooling Degree Days 0 0  
Month to date cooling degree days 0 0  
Year to date cooling degree days 0 0  
Moisture  
Dew Point 23 °F    
Average Humidity 60    
Maximum Humidity 72    
Minimum Humidity 48    
Precipitation  
Precipitation 0.00 in 0.00 in 0.40 in (1909)
Month to date precipitation 0.01 0.06  
Year to date precipitation 0.01 0.06  
Snow  
Snow 0.00 in - - ()
Snow Depth T in    
Sea Level Pressure  
Sea Level Pressure 29.57 in    
Wind  
Wind Speed 22 mph (WSW)    
Max Wind Speed 44 mph    
Max Gust Speed 54 mph    
Visibility 10 miles    
Events      
T = Trace of Precipitation, MM = Missing Value Source: NWS Daily Summary

Daily Weather History Graph

Daily Weather History Graph

Search for Another Location

Airport or City:

Trip Planner

Search our weather history database for the weather conditions in past years. The results will help you decide how hot, cold, wet, or windy it might be!

Date:

Astronomy

Jan. 09, 2014 Rise Set
Actual Time 8:20 AM MST 4:53 PM MST
Civil Twilight 7:43 AM MST 5:29 PM MST
Nautical Twilight 7:04 AM MST 6:09 PM MST
Astronomical Twilight 6:26 AM MST 6:47 PM MST
Moon 12:33 PM MST (1/9) 2:19 AM MST (1/9)
Length of Visible Light 9h 46m
Length of Day
8h 33m
Waxing Gibbous, 66% of the Moon is Illuminated
Jan 9
Waxing Gibbous
Jan 15
Full
Jan 23
Last Quarter
Jan 30
New
Feb 6
First Quarter

Hourly Weather History & Observations

Time (MST) Temp. Windchill Dew Point Humidity Pressure Visibility Wind Dir Wind Speed Gust Speed Precip Events Conditions
12:56 AM 36.0 °F 28.5 °F 27.0 °F 70% 29.60 in 10.0 mi WSW 10.4 mph - N/A   Scattered Clouds
1:56 AM 36.0 °F 28.5 °F 26.1 °F 67% 29.58 in 10.0 mi WSW 10.4 mph - N/A   Clear
2:56 AM 35.1 °F 28.6 °F 26.1 °F 70% 29.58 in 10.0 mi SW 8.1 mph - N/A   Clear
3:56 AM 32.0 °F 25.6 °F 25.0 °F 75% 29.57 in 10.0 mi SW 6.9 mph - N/A   Clear
4:56 AM 36.0 °F 32.1 °F 26.1 °F 67% 29.56 in 10.0 mi WSW 4.6 mph - N/A   Clear
5:56 AM 36.0 °F 26.3 °F 28.0 °F 73% 29.54 in 10.0 mi WSW 16.1 mph - N/A   Clear
6:56 AM 36.0 °F 26.7 °F 26.1 °F 67% 29.54 in 10.0 mi West 15.0 mph - N/A   Clear
7:56 AM 36.0 °F 25.0 °F 25.0 °F 64% 29.53 in 10.0 mi WSW 20.7 mph 28.8 mph N/A   Clear
8:56 AM 35.1 °F 25.5 °F 25.0 °F 67% 29.56 in 10.0 mi WSW 15.0 mph - N/A   Clear
9:56 AM 37.9 °F 26.6 °F 25.0 °F 60% 29.55 in 10.0 mi West 25.3 mph - N/A   Clear
10:56 AM 39.9 °F 27.8 °F 25.0 °F 55% 29.55 in 10.0 mi WSW 33.4 mph 40.3 mph N/A   Clear
11:56 AM 37.9 °F 26.6 °F 25.0 °F 60% 29.56 in 10.0 mi WSW 25.3 mph - N/A   Clear
12:56 PM 37.0 °F 26.4 °F 23.0 °F 57% 29.56 in 10.0 mi WSW 20.7 mph - N/A   Clear
1:56 PM 37.9 °F 29.2 °F 23.0 °F 55% 29.56 in 10.0 mi West 15.0 mph - N/A   Clear
2:56 PM 39.9 °F 30.5 °F 21.0 °F 47% 29.56 in 10.0 mi West 19.6 mph 29.9 mph N/A   Clear
4:56 PM 33.1 °F 19.3 °F 21.0 °F 61% 29.59 in 10.0 mi WSW 28.8 mph 42.6 mph N/A   Clear
5:56 PM 30.9 °F 16.2 °F 19.0 °F 61% 29.62 in 10.0 mi West 29.9 mph 35.7 mph N/A   Clear
6:56 PM 30.9 °F 15.5 °F 18.0 °F 59% 29.61 in 10.0 mi West 33.4 mph 41.4 mph N/A   Clear
7:56 PM 30.0 °F 14.7 °F 17.1 °F 59% 29.60 in 10.0 mi West 31.1 mph 43.7 mph N/A   Clear
8:56 PM 30.9 °F 14.9 °F 17.1 °F 57% 29.58 in 10.0 mi West 36.8 mph 48.3 mph N/A   Clear
9:56 PM 30.0 °F 14.7 °F 17.1 °F 59% 29.57 in 10.0 mi West 31.1 mph 39.1 mph N/A   Clear
10:56 PM 30.9 °F 14.7 °F 16.0 °F 54% 29.53 in 10.0 mi West 38.0 mph 50.6 mph N/A   Clear
11:56 PM 30.9 °F 15.1 °F 16.0 °F 54% 29.52 in 10.0 mi WSW 35.7 mph 48.3 mph N/A   Overcast